Regional Weather Roundup
Issued by NWS

Home | Current Version | Previous Version | Graphics & Text | Print | Product List | Glossary On
Versions: 1 2 3 4 5 6 7 8 9 10 11 12 13 14 15 16 17 18 19 20 21 22 23 24 25 26 27 28 29 30 31 32 33 34 35 36 37 38 39 40 41 42 43 44 45 46 47 48 49 50
000
ASUS45 KBOU 021710
RWRCO

WEATHER ROUNDUP FOR COLORADO
NATIONAL WEATHER SERVICE DENVER/BOULDER CO
1100 AM MDT SUN AUG 02 2015

NOTE: "FAIR" INDICATES FEW OR NO CLOUDS BELOW 12000 FEET WITH NO
SIGNIFICANT WEATHER AND/OR OBSTRUCTIONS TO VISIBILITY.

COZ001>005-013-030-031-021800-
...NORTHWEST COLORADO...

CITY           SKY/WX    TMP DP  RH WIND       PRES   REMARKS
CRAIG          MOSUNNY   81  45  28 N6        30.19F
HAYDEN         MOSUNNY   75  41  29 CALM      30.22F
MEEKER         PTSUNNY   74  48  39 CALM      30.22S
MOUNT WERNER   NOT AVBL
STEAMBOAT SPGS MOSUNNY   73  46  37 CALM      30.24F
WALDEN         SUNNY     73  36  25 S3        30.33F
$$

COZ006>008-011-021800-
...WEST CENTRAL VALLEYS...

CITY           SKY/WX    TMP DP  RH WIND       PRES   REMARKS
GRAND JUNCTION CLOUDY    74  54  49 SE13      30.14S
MONTROSE       CLOUDY    70  52  52 NW3       30.23F
EAGLE          PTSUNNY   73  45  35 CALM      30.26F
RIFLE          CLOUDY    73  50  44 CALM      30.18S
DELTA          CLOUDY    73  55  52 CALM      30.18F
NUCLA          LGT RAIN  61  59  94 CALM      30.30F
$$

COZ017>023-064>068-021800-
...SOUTHWEST COLORADO...

CITY           SKY/WX    TMP DP  RH WIND       PRES   REMARKS
DURANGO        PTSUNNY   71  53  52 N6        30.26F
CORTEZ         PTSUNNY   68  61  78 CALM      30.22F
PAGOSA SPRINGS PTSUNNY   70  47  45 S6        30.34S
TELLURIDE      CLOUDY    58  52  81 W3        30.44F
WOLF CREEK PAS NOT AVBL
$$

COZ009-010-012-014-032>034-037-058>063-021800-
...CENTRAL COLORADO...

CITY           SKY/WX    TMP DP  RH WIND       PRES   REMARKS
ASPEN          CLOUDY    67  48  50 N5        30.32F
BUENA VISTA    PTSUNNY   69  45  41 CALM      30.32S
COPPER MTN     PTSUNNY   64  34  32 NW5       30.64S
BERTHOUD PASS  FAIR      50  39  66 E6        30.69S
COTTONWOOD PAS PTSUNNY   68  43  40 E3        30.46S
GUNNISON       PTSUNNY   64  52  63 W8        30.35S
KREMMLING      PTSUNNY   70  36  28 CALM      30.31F
LEADVILLE      CLOUDY    66  39  37 N6        30.44F
MONARCH PASS   CLOUDY    55  41  58 E13       30.72S
SALIDA         PTSUNNY   74  45  35 CALM      30.35
SUNLIGHT       CLOUDY    59  45  58 CALM      30.57S
WILKERSON PASS PTSUNNY   61  37  41 SE5       30.60F
$$

COZ069>075-021800-
...SAN LUIS VALLEY/SANGRE DE CRISTO MOUNTAINS...

CITY           SKY/WX    TMP DP  RH WIND       PRES   REMARKS
ALAMOSA        MOSUNNY   69  50  50 SW6       30.30F
LA VETA PASS   MOSUNNY   59  46  63 MISG      30.49S
SAGUACHE       MOSUNNY   70  50  49 S8        30.34S
$$

COZ035-036-038>040-021800-
...NORTHERN COLORADO FRONT RANGE...

CITY           SKY/WX    TMP DP  RH WIND       PRES   REMARKS
DENVER INTL AP PTSUNNY   86  50  28 VRB3      30.10F
DMNS CITY PARK   N/A     81  51  34 NW3G9     30.10R
AURORA         PTSUNNY   84  49  29 SW2       30.13S
FRONT RANGE AP PTSUNNY   84  46  26 MISG        N/A
ERIE MUNI ARPT MOSUNNY   85  47  27 CALM      30.08S
BOULDER MUN AP MOSUNNY   82  50  32 E3        30.09S
CENTENNIAL     PTSUNNY   86  45  23 VRB6      30.14S
BROOMFIELD     PTSUNNY   82  48  30 CALM      30.13S
FORT COLLINS   SUNNY     84  54  34 SE7       30.08S
LONGMONT       SUNNY     87  53  30 E5        30.09S
$$

COZ041-046-047-076>085-087-088-021800-
...PIKES PEAK/PALMER DIVIDE AND SOUTHERN FOOTHILLS...

CITY           SKY/WX    TMP DP  RH WIND       PRES   REMARKS
COLO. SPRINGS  MOSUNNY   80  50  34 SE9       30.19S
A. F. ACADEMY  SUNNY     82  45  26 SE8       30.20R
ELLICOTT       SUNNY    N/A N/A N/A S10       30.17S
FALCON         SUNNY     78  49  36 S7        30.25R
FORT CARSON    SUNNY     80  54  40 SE7       30.16S
LIMON          SUNNY     84  50  30 SE13      30.14R
MONUMENT HILL  NOT AVBL
TRINIDAD       MOSUNNY   81  49  32 VRB5      30.16S
$$

COZ042>045-048>051-090-091-021800-
...NORTHEAST COLORADO...

CITY           SKY/WX    TMP DP  RH WIND       PRES   REMARKS
GREELEY ARPT   SUNNY     81  55  41 NW3       30.07S
AKRON          SUNNY     87  50  27 VRB7      30.08R
BURLINGTON     SUNNY     86  56  35 SE9       30.05F
WRAY           MOSUNNY   88  58  36 NE6       30.03S
STERLING       SUNNY     84  59  42 S5        30.01F
HOLYOKE        MOSUNNY   88  59  37 SE8       30.02S
FORT MORGAN    SUNNY     83  53  35 CALM      30.06S
$$

COZ086-089-092>099-021800-
...SOUTHEAST COLORADO...

CITY           SKY/WX    TMP DP  RH WIND       PRES   REMARKS
PUEBLO         SUNNY     85  52  32 SW5       30.07F
LA JUNTA       SUNNY     90  51  26 VRB7      30.04S
LAMAR          SUNNY     88  61  40 VRB6      30.00S
SPRINGFIELD      N/A     87  54  32 NW8       30.04F
$$



USA.gov is the U.S. government's official web portal to all federal, state and local government web resources and services.